Member login
oder Login
 

Workout from  Alexander Tyuryaev

Basic data

Sport Running
Date Saturday, 09/11/2019
Starting time 17:02 o`clock
Duration 0:02:56
Distance 0.51 km  (1 Lap)
Average pace 10.47 km/h
05:43.75 min/km
Exercise method Not specified
Exercise type Not specified
Load/ intensity Not specified

Description

Bio data

Calorie consumption 1 kcal
Heart rate

Personal condition

Charts

Interim times

Distance Interim pace
(min/km)
Interim time
(hh:mm:ss)
Difference time
(hh:mm:ss)
0.01 km 00:00.0 0:00:04 0:00:04
0.02 km 00:00.0 0:00:06 0:00:02
0.03 km 00:00.0 0:00:10 0:00:04
0.04 km 00:00.0 0:00:13 0:00:03
0.05 km 00:00.0 0:00:16 0:00:03
0.06 km 00:00.0 0:00:20 0:00:04
0.07 km 00:00.0 0:00:23 0:00:03
0.08 km 00:00.0 0:00:26 0:00:03
0.09 km 00:00.0 0:00:29 0:00:03
0.1 km 00:00.0 0:00:32 0:00:03
0.11 km 00:00.0 0:00:35 0:00:03
0.12 km 00:00.0 0:00:40 0:00:05
0.13 km 00:00.0 0:00:43 0:00:03
0.14 km 00:00.0 0:00:46 0:00:03
0.15 km 00:00.0 0:00:49 0:00:03
0.16 km 00:00.0 0:00:52 0:00:03
0.17 km 00:00.0 0:00:56 0:00:04
0.18 km 00:00.0 0:01:00 0:00:04
0.19 km 00:00.0 0:01:04 0:00:04
0.2 km 00:00.0 0:01:07 0:00:03
0.21 km 00:00.0 0:01:11 0:00:04
0.22 km 00:00.0 0:01:14 0:00:03
0.23 km 00:00.0 0:01:17 0:00:03
0.24 km 00:00.0 0:01:21 0:00:04
0.25 km 00:00.0 0:01:24 0:00:03
0.26 km 00:00.0 0:01:28 0:00:04
0.27 km 00:00.0 0:01:31 0:00:03
0.28 km 00:00.0 0:01:34 0:00:03
0.29 km 00:00.0 0:01:37 0:00:03
0.3 km 00:00.0 0:01:41 0:00:04
0.31 km 00:00.0 0:01:44 0:00:03
0.32 km 00:00.0 0:01:48 0:00:04
0.33 km 00:00.0 0:01:52 0:00:04
0.34 km 00:00.0 0:01:55 0:00:03
0.35 km 00:00.0 0:01:58 0:00:03
0.36 km 00:00.0 0:02:01 0:00:03
0.37 km 00:00.0 0:02:04 0:00:03
0.38 km 00:00.0 0:02:07 0:00:03
0.39 km 00:00.0 0:02:11 0:00:04
0.4 km 00:00.0 0:02:15 0:00:04
0.41 km 00:00.0 0:02:18 0:00:03
0.42 km 00:00.0 0:02:22 0:00:04
0.43 km 00:00.0 0:02:25 0:00:03
0.44 km 00:00.0 0:02:29 0:00:04
0.45 km 00:00.0 0:02:33 0:00:04
0.46 km 00:00.0 0:02:37 0:00:04
0.47 km 00:00.0 0:02:40 0:00:03
0.48 km 00:00.0 0:02:44 0:00:04
0.49 km 00:00.0 0:02:48 0:00:04
0.5 km 00:00.0 0:02:52 0:00:04
0.51 km 00:00.0 0:02:56 0:00:04

Track

RunApp Track

Track suitable for: